Boscobel, WI

2:56 PM CST on February 20, 2017 (GMT -0600)
Boscobel

Weather History for KOVS - August, 2013

Change the Weather History Date:

Tuesday, August 13, 2013

  Actual Average (KPDC) Record (KPDC)
Temperature  
Mean Temperature 64 °F -  
Max Temperature 77 °F 84 °F 97 °F (1988)
Min Temperature 52 °F 60 °F 48 °F (1964)
Degree Days  
Heating Degree Days 2    
Growing Degree Days 14 (Base 50)    
Moisture  
Dew Point 52 °F    
Average Humidity 76    
Maximum Humidity 97    
Minimum Humidity 38    
Precipitation  
Precipitation 0.00 in - - ()
Sea Level Pressure  
Sea Level Pressure 30.04 in    
Wind  
Wind Speed 1 mph (NNE)    
Max Wind Speed 8 mph    
Max Gust Speed -    
Visibility 8 miles    
Events      
Averages and records for this station are not official NWS values.
T = Trace of Precipitation, MM = Missing Value Source: NWS Daily Summary

Daily Weather History Graph

Daily Weather History Graph

Search for Another Location

Airport or City:

Trip Planner

Search our weather history database for the weather conditions in past years. The results will help you decide how hot, cold, wet, or windy it might be!

Date:

Astronomy

Aug. 13, 2013 Rise Set
Actual Time 6:06 AM CDT 8:07 PM CDT
Civil Twilight 5:35 AM CDT 8:38 PM CDT
Nautical Twilight 4:57 AM CDT 9:16 PM CDT
Astronomical Twilight 4:15 AM CDT 9:57 PM CDT
Moon 1:14 PM CDT (8/13) 11:29 PM CDT (8/13)
Length of Visible Light 15h 03m
Length of Day
14h 01m
Waxing Crescent, 42% of the Moon is Illuminated
Aug 13
Waxing Crescent
Aug 14
First Quarter
Aug 20
Full
Aug 28
Last Quarter
Sep 5
New

Hourly Weather History & Observations

Time (CDT) Temp. Dew Point Humidity Pressure Visibility Wind Dir Wind Speed Gust Speed Precip Events Conditions
12:38 AM 59.0 °F 55.9 °F 90% 30.03 in 10.0 mi Calm Calm - N/A   Partly Cloudy
12:53 AM 57.9 °F 55.9 °F 93% 30.03 in 10.0 mi Calm Calm - N/A   Partly Cloudy
1:23 AM 57.0 °F 55.0 °F 93% 30.04 in 1.2 mi Calm Calm - N/A   Partly Cloudy
1:25 AM 57.0 °F 55.0 °F 93% 30.04 in 0.8 mi Calm Calm - N/A   Partly Cloudy
1:34 AM 55.9 °F 55.0 °F 97% 30.04 in 1.2 mi Calm Calm - N/A   Clear
1:38 AM 57.0 °F 55.0 °F 93% 30.04 in 4.0 mi Calm Calm - N/A   Clear
1:53 AM 55.9 °F 55.0 °F 97% 30.04 in 4.0 mi Calm Calm - N/A   Clear
2:13 AM 55.9 °F 54.0 °F 93% 30.04 in 1.5 mi Calm Calm - N/A   Clear
2:17 AM 55.9 °F 54.0 °F 93% 30.04 in 0.8 mi Calm Calm - N/A   Clear
2:34 AM 55.0 °F 54.0 °F 96% 30.04 in 1.2 mi Calm Calm - N/A   Partly Cloudy
2:36 AM 55.0 °F 54.0 °F 96% 30.04 in 3.0 mi Calm Calm - N/A   Partly Cloudy
2:53 AM 57.0 °F 55.0 °F 93% 30.04 in 10.0 mi ENE 3.5 mph - N/A   Mostly Cloudy
3:53 AM 57.9 °F 55.0 °F 90% 30.06 in 10.0 mi Calm Calm - N/A   Clear
4:53 AM 55.0 °F 53.1 °F 93% 30.06 in 10.0 mi NNE 3.5 mph - N/A   Clear
5:38 AM 55.9 °F 53.1 °F 90% 30.09 in 10.0 mi NNE 3.5 mph - N/A   Mostly Cloudy
5:53 AM 55.9 °F 54.0 °F 93% 30.09 in 10.0 mi Calm Calm - N/A   Mostly Cloudy
6:51 AM 57.2 °F 53.6 °F 88% 30.12 in 10.0 mi Calm Calm - N/A   Scattered Clouds
6:53 AM 57.0 °F 54.0 °F 89% 30.12 in 10.0 mi Calm Calm - N/A   Mostly Cloudy
7:11 AM 59.0 °F 54.0 °F 83% 30.12 in 10.0 mi NNE 3.5 mph - N/A   Mostly Cloudy
7:21 AM 59.0 °F 55.0 °F 87% 30.13 in 10.0 mi NE 3.5 mph - N/A   Mostly Cloudy
7:28 AM 60.1 °F 55.9 °F 86% 30.13 in 10.0 mi NE 3.5 mph - N/A   Scattered Clouds
7:53 AM 61.0 °F 54.0 °F 78% 30.13 in 10.0 mi Variable 4.6 mph - N/A   Clear
8:53 AM 63.0 °F 48.0 °F 58% 29.53 in 10.0 mi NE 5.8 mph - N/A   Clear
9:53 AM 66.0 °F 48.0 °F 52% 29.53 in 10.0 mi Variable 5.8 mph - N/A   Clear
10:53 AM 68.0 °F 46.9 °F 47% 30.17 in 10.0 mi North - - N/A   Clear
11:53 AM 70.0 °F 46.0 °F 42% 30.17 in 10.0 mi Variable 6.9 mph - N/A   Partly Cloudy
12:53 PM 72.0 °F 46.0 °F 40% 30.17 in 10.0 mi Variable 4.6 mph - N/A   Scattered Clouds
1:53 PM 71.1 °F 46.0 °F 41% 29.53 in 10.0 mi North 8.1 mph - N/A   Mostly Cloudy
2:53 PM 73.0 °F 46.0 °F 38% 30.16 in 10.0 mi NNW 5.8 mph - N/A   Mostly Cloudy
3:53 PM 73.0 °F 46.9 °F 39% 30.15 in 10.0 mi Variable 5.8 mph - N/A   Mostly Cloudy
4:53 PM 73.9 °F 46.9 °F 38% 30.14 in 10.0 mi North 5.8 mph - N/A   Scattered Clouds
5:53 PM 73.0 °F 46.9 °F 39% 30.14 in 10.0 mi North 6.9 mph - N/A   Partly Cloudy
6:53 PM 73.0 °F 48.9 °F 42% 30.13 in 10.0 mi North 4.6 mph - N/A   Overcast
7:53 PM 66.0 °F 53.1 °F 63% 29.53 in 10.0 mi Calm Calm - N/A   Overcast
8:53 PM 59.0 °F 54.0 °F 83% 30.15 in 10.0 mi Calm Calm - N/A   Clear
9:53 PM 55.9 °F 53.1 °F 90% 30.17 in 10.0 mi Calm Calm - N/A   Overcast
10:53 PM 54.0 °F 52.0 °F 93% 30.18 in 10.0 mi Calm Calm - N/A   Clear
11:53 PM 52.0 °F 50.0 °F 93% 30.19 in 10.0 mi Calm Calm - N/A   Clear